Location: Burgberg
(50.1428°N, 11.0671°E)
Time: 10:03:25
(UTC+00:00)

STARLINK-33 - Pass Details

Date: 26 January 2020
Orbit: 404 x 406 km, 53.0° (Epoch: 19 February)

Event Time Altitude Azimuth Distance (km) Brightness Sun altitude
Exits shadow 04:32:21 42° 66° (ENE) 598 4.2 -23.2°
Drops below altitude 10° 04:34:41 10° 69° (ENE) 1,483 6.7 -22.8°
Enters shadow 05:29:42 -71° 259° (W) 12,464 10.4 -14.1°
